Lancaster, PA

9:57 AM EDT on July 27, 2017 (GMT -0400)
Lancaster

Weather History for KLNS - March, 2014

Change the Weather History Date:

Tuesday, March 4, 2014

  Actual Average Record
Temperature  
Mean Temperature 18 °F -  
Max Temperature 25 °F 46 °F 70 °F (1991)
Min Temperature 10 °F 28 °F 10 °F (2003)
Degree Days  
Heating Degree Days 48    
Moisture  
Dew Point 2 °F    
Average Humidity 51    
Maximum Humidity 63    
Minimum Humidity 38    
Precipitation  
Precipitation 0.00 in - - ()
Sea Level Pressure  
Sea Level Pressure 30.34 in    
Wind  
Wind Speed 2 mph (ENE)    
Max Wind Speed 8 mph    
Max Gust Speed -    
Visibility 10 miles    
Events      
Averages and records for this station are not official NWS values.
T = Trace of Precipitation, MM = Missing Value Source: NWS Daily Summary

Daily Weather History Graph

Daily Weather History Graph

Search for Another Location

Airport or City:

Trip Planner

Search our weather history database for the weather conditions in past years. The results will help you decide how hot, cold, wet, or windy it might be!

Date:

Astronomy

Mar. 04, 2014 Rise Set
Actual Time 6:34 AM EST 6:00 PM EST
Civil Twilight 6:06 AM EST 6:27 PM EST
Nautical Twilight 5:35 AM EST 6:58 PM EST
Astronomical Twilight 5:04 AM EST 7:30 PM EST
Moon 8:18 AM EST (3/4) 10:05 PM EST (3/4)
Length of Visible Light 12h 20m
Length of Day
11h 26m
Waxing Crescent, 14% of the Moon is Illuminated
Mar 4
Waxing Crescent
Mar 8
First Quarter
Mar 16
Full
Mar 23
Last Quarter
Mar 30
New

Hourly Weather History & Observations

Time (EST) Temp. Windchill Dew Point Humidity Pressure Visibility Wind Dir Wind Speed Gust Speed Precip Events Conditions
12:53 AM 10.9 °F - -2.0 °F 56% 30.36 in 10.0 mi Calm Calm - N/A   Clear
1:53 AM 12.0 °F 2.7 °F -2.9 °F 51% 30.37 in 10.0 mi NNW 5.8 mph - N/A   Clear
2:53 AM 10.9 °F 4.7 °F -2.9 °F 54% 30.35 in 10.0 mi North 3.5 mph - N/A   Clear
3:53 AM 10.9 °F - -2.0 °F 56% 30.36 in 10.0 mi Calm Calm - N/A   Clear
4:53 AM 10.0 °F - -2.9 °F 56% 30.38 in 10.0 mi Calm Calm - N/A   Clear
5:53 AM 10.0 °F - -2.0 °F 58% 30.40 in 10.0 mi Calm Calm - N/A   Clear
6:53 AM 10.0 °F 1.8 °F -0.9 °F 61% 30.42 in 10.0 mi NW 4.6 mph - N/A   Clear
7:53 AM 12.0 °F - -0.9 °F 56% 30.42 in 10.0 mi Calm Calm - N/A   Clear
8:53 AM 14.0 °F 8.2 °F -0.9 °F 52% 30.43 in 10.0 mi North 3.5 mph - N/A   Clear
9:53 AM 16.0 °F - -0.0 °F 49% 30.42 in 10.0 mi Calm Calm - N/A   Clear
10:53 AM 16.0 °F - -0.9 °F 47% 30.41 in 10.0 mi Calm Calm - N/A   Clear
11:53 AM 19.0 °F - -2.0 °F 40% 30.38 in 10.0 mi Calm Calm - N/A   Clear
12:53 PM 21.0 °F 14.6 °F 1.0 °F 42% 30.35 in 10.0 mi ENE 4.6 mph - N/A   Clear
1:53 PM 23.0 °F 13.9 °F 3.9 °F 44% 30.32 in 10.0 mi East 8.1 mph - N/A   Clear
2:53 PM 24.1 °F 18.2 °F 1.9 °F 38% 30.32 in 10.0 mi ENE 4.6 mph - N/A   Clear
3:53 PM 24.1 °F 18.2 °F 3.0 °F 40% 30.29 in 10.0 mi ESE 4.6 mph - N/A   Clear
4:53 PM 25.0 °F 18.1 °F 6.1 °F 45% 30.27 in 10.0 mi East 5.8 mph - N/A   Clear
5:53 PM 24.1 °F 18.2 °F 8.1 °F 51% 30.28 in 10.0 mi East 4.6 mph - N/A   Clear
6:53 PM 23.0 °F 17.0 °F 9.0 °F 55% 30.28 in 10.0 mi ESE 4.6 mph - N/A   Partly Cloudy
7:53 PM 21.9 °F 17.2 °F 7.0 °F 53% 30.29 in 10.0 mi ESE 3.5 mph - N/A   Partly Cloudy
8:53 PM 23.0 °F - 8.1 °F 53% 30.27 in 10.0 mi Calm Calm - N/A   Mostly Cloudy
9:53 PM 21.9 °F 17.2 °F 10.9 °F 63% 30.27 in 10.0 mi East 3.5 mph - N/A   Overcast
10:53 PM 21.9 °F - 8.1 °F 55% 30.27 in 10.0 mi Calm Calm - N/A   Partly Cloudy
11:53 PM 19.9 °F - 8.1 °F 60% 30.25 in 10.0 mi Calm Calm - N/A   Scattered Clouds